Location: Mason Neck State Park
(38.6428°N, 77.1981°W)
Time: 09:35:11
(UTC-04:00)

Cosmos 2278 Rocket - Visible Passes

Search period start: 23 August 2017 00:00
Search period end: 02 September 2017 00:00
Orbit: 840 x 846 km, 71.0° (Epoch: 22 August)

Date Brightness Start Highest point End Pass type
(mag) Time Alt. Az. Time Alt. Az. Time Alt. Az.
23 Aug 4.6 00:32:58 10° NW 00:34:14 15° WNW 00:34:14 15° WNW visible
23 Aug 2.8 22:33:26 10° NNW 22:38:10 45° NE 22:38:10 45° NE visible
24 Aug 4.5 00:18:20 10° NW 00:20:01 16° WNW 00:20:01 16° WNW visible
24 Aug 2.7 22:18:55 10° N 22:23:59 45° NE 22:23:59 45° NE visible
25 Aug 4.4 00:03:43 10° NW 00:05:50 18° WNW 00:05:50 18° WNW visible
25 Aug 2.7 22:04:23 10° N 22:09:49 44° ENE 22:09:50 44° ENE visible
25 Aug 4.2 23:49:06 10° NW 23:51:41 20° WNW 23:51:41 20° WNW visible
26 Aug 2.7 21:49:53 10° N 21:55:15 42° ENE 21:55:43 41° ENE visible
26 Aug 4.1 23:34:29 10° NW 23:37:34 23° WNW 23:37:34 23° WNW visible
27 Aug 2.7 21:35:22 10° N 21:40:42 40° ENE 21:41:39 37° E visible
27 Aug 3.9 23:19:53 10° NW 23:23:30 25° W 23:23:30 25° W visible
28 Aug 2.8 21:20:52 10° N 21:26:09 38° ENE 21:27:38 33° E visible
28 Aug 3.8 23:05:16 10° NW 23:09:29 27° W 23:09:29 27° W visible
29 Aug 2.9 21:06:21 10° N 21:11:36 37° ENE 21:13:40 28° ESE visible
29 Aug 3.6 22:50:40 10° NW 22:55:30 29° WSW 22:55:31 29° WSW visible
30 Aug 2.9 20:51:50 10° N 20:57:02 35° ENE 20:59:44 23° ESE visible
30 Aug 3.5 22:36:05 10° NW 22:40:59 31° WSW 22:41:36 30° WSW visible
31 Aug 3.0 20:37:21 10° N 20:42:29 34° ENE 20:45:54 18° ESE visible
31 Aug 3.5 22:21:30 10° NW 22:26:28 32° WSW 22:27:46 29° SW visible
01 Sep 3.0 20:22:51 10° N 20:27:56 33° ENE 20:32:08 14° ESE visible
01 Sep 3.5 22:06:54 10° NW 22:11:57 34° WSW 22:14:00 26° SW visible
